KG2V Weather Reports


time (UTC)temp
C
wind
direction
speed
KPH
gust
KPH
rain 1hr
cm
rain 24hr
cm
rain mn
cm
humidity
%
barometer
mb
20260504045809 8 179 0.0 0.0 0.00 0.00 0.00 67 1004.6
20260504045308 8 179 0.0 0.0 0.00 0.00 0.00 65 1004.7
20260504044806 9 179 0.0 0.0 0.00 0.00 0.00 64 1004.8
20260504044303 9 179 0.0 0.0 0.00 0.00 0.00 63 1004.9
20260504043800 10 179 0.0 0.0 0.00 0.00 0.00 62 1004.7
20260504043257 9 178 0.0 1.6 0.00 0.00 0.00 62 1004.6
20260504042755 9 183 0.0 1.6 0.00 0.00 0.00 63 1004.8
20260504042251 10 173 0.0 0.0 0.00 0.00 0.00 62 1004.6
20260504041747 10 174 0.0 0.0 0.00 0.00 0.00 60 1004.5
20260504041243 10 187 0.0 0.0 0.00 0.00 0.00 60 1004.7
20260504040739 10 186 0.0 0.0 0.00 0.00 0.00 62 1004.6
20260504040237 10 176 0.0 0.0 0.00 0.00 0.00 62 1004.7
20260504035733 10 181 0.0 0.0 0.00 0.00 0.00 60 1004.9
20260504035231 10 181 0.0 0.0 0.00 0.00 0.00 60 1004.7
20260504034729 10 179 0.0 0.0 0.00 0.00 0.00 60 1004.7
20260504034226 11 186 0.0 0.0 0.00 0.00 0.00 58 1004.8
20260504033723 11 173 0.0 1.6 0.00 0.00 0.00 58 1004.6
20260504033220 11 171 0.0 0.0 0.00 0.00 0.00 57 1004.8
20260504032712 11 199 1.6 1.6 0.00 0.00 0.00 55 1004.8
20260504032209 11 192 1.6 1.6 0.00 0.00 0.00 55 1004.6
20260504031705 11 193 4.8 4.8 0.00 0.00 0.00 54 1004.7
20260504031203 12 220 3.2 3.2 0.00 0.00 0.00 55 1004.8
20260504030658 12 194 1.6 1.6 0.00 0.00 0.00 54 1004.8
20260504030155 12 221 1.6 3.2 0.00 0.00 0.00 55 1004.8
20260504025652 12 212 1.6 3.2 0.00 0.00 0.00 54 1004.7
20260504025148 12 221 1.6 3.2 0.00 0.00 0.00 55 1004.7
20260504024646 12 238 4.8 4.8 0.00 0.00 0.00 54 1004.6
20260504024142 12 188 3.2 3.2 0.00 0.00 0.00 54 1004.8
20260504023639 11 204 4.8 6.4 0.00 0.00 0.00 54 1004.8
20260504023136 11 185 3.2 4.8 0.00 0.00 0.00 54 1005.1
20260504022632 11 227 3.2 4.8 0.00 0.00 0.00 55 1004.8
20260504022128 11 237 4.8 6.4 0.00 0.00 0.00 56 1004.9
20260504021626 11 227 1.6 1.6 0.00 0.00 0.00 57 1005.0
20260504021122 11 204 1.6 1.6 0.00 0.00 0.00 56 1005.0
20260504020620 11 189 3.2 3.2 0.00 0.00 0.00 55 1004.9
20260504020115 11 191 3.2 4.8 0.00 0.00 0.00 56 1005.0
20260504015612 11 212 3.2 4.8 0.00 0.00 0.00 56 1005.1
20260504015109 11 205 4.8 4.8 0.00 0.00 0.00 56 1005.1
20260504014604 11 269 6.4 6.4 0.00 0.00 0.00 55 1004.9
20260504014101 11 271 4.8 6.4 0.00 0.00 0.00 56 1005.1
20260504013559 11 163 1.6 1.6 0.00 0.00 0.00 60 1005.2
20260504013056 11 235 4.8 6.4 0.00 0.00 0.00 57 1005.1
20260504012553 11 193 4.8 6.4 0.00 0.00 0.00 59 1004.9
20260504012051 11 247 4.8 4.8 0.00 0.00 0.00 60 1005.1
20260504011548 11 207 3.2 4.8 0.00 0.00 0.00 62 1005.3
20260504011044 11 210 1.6 1.6 0.00 0.00 0.00 65 1005.2
20260504010539 11 182 0.0 0.0 0.00 0.00 0.00 65 1005.2
20260504010036 10 186 1.6 1.6 0.00 0.00 0.00 67 1005.5
20260504005533 10 199 1.6 1.6 0.00 0.00 0.00 67 1005.4
20260504005030 11 198 0.0 0.0 0.00 0.00 0.00 66 1005.5
20260504004528 10 207 1.6 1.6 0.00 0.00 0.00 66 1005.4
20260504004025 10 200 0.0 0.0 0.00 0.00 0.00 67 1005.3
20260504003521 10 237 3.2 3.2 0.00 0.00 0.00 66 1005.2
20260504003018 10 177 0.0 1.6 0.00 0.00 0.00 67 1005.3
20260504002515 10 147 1.6 3.2 0.00 0.00 0.00 69 1005.3
20260504002012 10 185 0.0 0.0 0.00 0.00 0.00 70 1005.5
20260504001509 10 188 0.0 0.0 0.00 0.00 0.00 72 1005.7
20260504001006 10 193 3.2 3.2 0.00 0.00 0.00 72 1005.7
20260504000503 10 201 0.0 0.0 0.00 0.00 0.00 73 1005.9
20260504000000 10 190 0.0 1.6 0.00 0.00 0.00 74 1005.7
20260503235458 10 190 0.0 1.6 0.00 0.00 0.00 73 1005.6
20260503234955 10 168 1.6 1.6 0.00 0.00 0.00 73 1005.7
20260503234452 10 214 1.6 1.6 0.00 0.00 0.00 73 1005.6
20260503233950 10 197 1.6 1.6 0.00 0.00 0.00 72 1005.4
20260503233447 10 189 3.2 4.8 0.00 0.00 0.00 72 1005.5
20260503232943 10 228 1.6 3.2 0.00 0.00 0.00 71 1005.6
20260503232440 10 177 1.6 3.2 0.00 0.00 0.00 70 1005.8
20260503231938 10 224 3.2 4.8 0.00 0.00 0.00 70 1005.3
20260503231435 11 250 4.8 4.8 0.00 0.00 0.00 67 1005.5
20260503230931 11 256 8.0 11.3 0.00 0.00 0.00 65 1005.5
20260503230428 11 216 6.4 9.7 0.00 0.00 0.00 61 1005.5
20260503225926 11 177 8.0 11.3 0.00 0.00 0.00 58 1005.5
20260503225422 12 255 8.0 9.7 0.00 0.00 0.00 56 1005.3
20260503224918 11 287 4.8 6.4 0.00 0.00 0.00 57 1005.3
20260503224415 11 187 6.4 6.4 0.00 0.00 0.00 57 1005.2
20260503223913 11 187 9.7 12.9 0.00 0.00 0.00 57 1005.1
20260503223411 11 207 8.0 12.9 0.00 0.00 0.00 56 1004.9
20260503222910 11 210 8.0 9.7 0.00 0.00 0.00 55 1005.1
20260503222409 11 251 6.4 9.7 0.00 0.00 0.00 55 1004.8
20260503221907 12 211 4.8 4.8 0.00 0.00 0.00 55 1005.0
20260503221405 12 269 4.8 4.8 0.00 0.00 0.00 54 1005.0
20260503220901 12 178 14.5 17.7 0.00 0.00 0.00 52 1005.1
20260503220358 12 246 6.4 6.4 0.00 0.00 0.00 52 1005.0
20260503215855 12 192 9.7 12.9 0.00 0.00 0.00 50 1005.2
20260503215352 12 185 9.7 14.5 0.00 0.00 0.00 50 1004.9
20260503214849 12 253 6.4 9.7 0.00 0.00 0.00 50 1005.0
20260503214347 12 292 4.8 4.8 0.00 0.00 0.00 50 1004.8
20260503213844 13 163 4.8 4.8 0.00 0.00 0.00 50 1005.0
20260503213342 12 250 4.8 6.4 0.00 0.00 0.00 50 1005.2
20260503212838 12 262 4.8 6.4 0.00 0.00 0.00 50 1005.1
20260503212336 12 230 8.0 9.7 0.00 0.00 0.00 51 1004.9
20260503211833 12 264 6.4 6.4 0.00 0.00 0.00 50 1005.0
20260503211330 12 270 4.8 4.8 0.00 0.00 0.00 51 1005.2
20260503210826 12 217 6.4 9.7 0.00 0.00 0.00 49 1005.1
20260503210323 12 225 4.8 4.8 0.00 0.00 0.00 51 1005.1
20260503205818 12 184 6.4 11.3 0.00 0.00 0.00 48 1005.0
20260503205315 13 237 8.0 11.3 0.00 0.00 0.00 47 1005.2
20260503204811 13 141 6.4 9.7 0.00 0.00 0.00 48 1005.1
20260503204309 13 204 11.3 14.5 0.00 0.00 0.00 47 1004.8
20260503203806 13 195 8.0 9.7 0.00 0.00 0.00 47 1004.9
20260503203304 13 233 6.4 9.7 0.00 0.00 0.00 48 1005.1
20260503202800 13 222 16.1 20.9 0.00 0.00 0.00 46 1005.5
20260503202258 13 288 9.7 14.5 0.00 0.00 0.00 46 1005.2
20260503201756 13 209 6.4 11.3 0.00 0.00 0.00 46 1005.4
20260503201253 13 237 11.3 14.5 0.00 0.00 0.00 44 1005.4
20260503200750 13 238 6.4 9.7 0.00 0.00 0.00 44 1005.2
20260503200245 13 282 8.0 9.7 0.00 0.00 0.00 44 1005.1
20260503195742 13 257 8.0 11.3 0.00 0.00 0.00 43 1005.4
20260503195239 13 265 3.2 3.2 0.00 0.00 0.00 45 1005.6
20260503194737 13 231 1.6 1.6 0.00 0.00 0.00 47 1005.6
20260503194232 13 171 9.7 11.3 0.00 0.00 0.00 43 1005.6
20260503193729 13 248 6.4 9.7 0.00 0.00 0.00 43 1006.0
20260503193225 13 249 6.4 11.3 0.00 0.00 0.00 42 1005.9
20260503192721 13 255 8.0 9.7 0.00 0.00 0.00 42 1006.0
20260503192216 13 192 6.4 11.3 0.00 0.00 0.00 43 1006.4
20260503191713 13 225 8.0 9.7 0.00 0.00 0.00 40 1006.3
20260503191210 13 234 6.4 11.3 0.00 0.00 0.00 42 1006.3
20260503190707 13 189 6.4 9.7 0.00 0.00 0.00 41 1006.4
20260503190204 13 220 9.7 12.9 0.00 0.00 0.00 43 1006.5
20260503185701 13 258 6.4 11.3 0.00 0.00 0.00 42 1006.5
20260503185156 13 223 9.7 11.3 0.00 0.00 0.00 43 1006.8
20260503184651 12 211 4.8 4.8 0.00 0.00 0.00 45 1006.6
20260503184148 12 254 8.0 11.3 0.00 0.00 0.00 42 1006.9
20260503183644 12 161 3.2 9.7 0.00 0.00 0.00 44 1007.2
20260503183142 11 199 6.4 6.4 0.00 0.00 0.00 42 1007.1
20260503182640 12 221 6.4 6.4 0.00 0.00 0.00 43 1007.1
20260503182139 13 203 3.2 4.8 0.00 0.00 0.00 42 1007.2
20260503181635 12 193 1.6 3.2 0.00 0.00 0.00 44 1007.2
20260503181131 12 229 3.2 4.8 0.00 0.00 0.00 44 1007.2
20260503180628 13 205 8.0 11.3 0.00 0.00 0.00 43 1007.5
20260503180126 12 262 6.4 9.7 0.00 0.00 0.00 44 1007.5
20260503175623 12 206 6.4 9.7 0.00 0.00 0.00 41 1007.4
20260503175120 12 244 3.2 4.8 0.00 0.00 0.00 45 1007.6
20260503174616 12 252 8.0 9.7 0.00 0.00 0.00 44 1007.7
20260503174114 12 248 6.4 11.3 0.00 0.00 0.00 44 1007.4
20260503173608 12 279 3.2 4.8 0.00 0.00 0.00 46 1007.4
20260503173105 12 269 6.4 6.4 0.00 0.00 0.00 46 1007.5
20260503172602 12 195 1.6 1.6 0.00 0.00 0.00 48 1007.7
20260503172100 12 216 6.4 9.7 0.00 0.00 0.00 46 1007.5
20260503171556 12 289 4.8 9.7 0.00 0.00 0.00 49 1007.6
20260503171054 12 250 3.2 4.8 0.00 0.00 0.00 49 1007.7
20260503170549 11 225 3.2 4.8 0.00 0.00 0.00 51 1007.9
20260503150942 10 228 4.8 4.8 0.00 0.00 0.00 57 1008.9
20260503150439 10 249 6.4 11.3 0.00 0.00 0.00 58 1008.9
20260503131332 6 219 4.8 4.8 0.00 0.00 0.00 68 1009.9
20260503130829 6 186 0.0 1.6 0.00 0.00 0.00 68 1009.7
20260503130327 6 271 4.8 6.4 0.00 0.00 0.00 69 1009.8
20260503110709 1 194 1.6 1.6 0.00 0.00 0.00 87 1009.9
20260503110206 1 193 0.0 1.6 0.00 0.00 0.00 89 1009.7
20260503100133 0 208 0.0 0.0 0.00 0.00 0.00 93 1009.5
20260503081516 1 199 0.0 0.0 0.00 0.00 0.00 92 1009.4
20260503081014 1 199 0.0 0.0 0.00 0.00 0.00 92 1009.5
20260503080509 1 199 0.0 0.0 0.00 0.00 0.00 91 1009.8
20260503072443 1 199 0.0 0.0 0.00 0.00 0.00 88 1009.5
20260503071940 1 199 0.0 0.0 0.00 0.00 0.00 88 1009.5
20260503071437 1 199 0.0 0.0 0.00 0.00 0.00 88 1009.5
20260503070933 1 199 0.0 0.0 0.00 0.00 0.00 88 1009.7
20260503070430 1 199 0.0 0.0 0.00 0.00 0.00 88 1009.5
20260503054844 3 198 0.0 0.0 0.00 0.00 0.00 81 1009.9
20260503054339 3 198 0.0 0.0 0.00 0.00 0.00 80 1010.1
20260503053838 3 193 0.0 0.0 0.00 0.00 0.00 80 1009.9
20260503053335 3 191 1.6 1.6 0.00 0.00 0.00 80 1010.0
20260503052831 3 184 0.0 0.0 0.00 0.00 0.00 80 1010.0
20260503052328 3 184 0.0 0.0 0.00 0.00 0.00 80 1010.0
20260503051824 3 175 0.0 0.0 0.00 0.00 0.00 80 1010.1
20260503051321 3 174 0.0 0.0 0.00 0.00 0.00 80 1010.1
20260503050818 3 184 0.0 0.0 0.00 0.00 0.00 79 1010.3
20260503050314 3 204 1.6 1.6 0.00 0.00 0.00 79 1010.4